Flag for Tanzania Weather past 2 weeks in Arusha, Tanzania

Now
70 °F

Partly sunny.


Feels Like: 70 °F
Forecast: 61 / 81 °F
Wind: 6 mph from Southeast

Location: Kenyatta Airport

Current Time: Oct 21, 2014 at 10:37:41 AM

Latest Report: Oct 21, 2014 at 10:00 AM


Visibility: N/A

Pressure: 30.24 "Hg

Humidity: 69%

Dew point: 59 °F

Location of ArushaLocation

Historic Weather in Arusha — Graph

°F

Arusha temperature yesterday

Maximum temperature yesterday: 75 °F (at 1:00 PM)
Minimum temperature yesterday: 63 °F (at 6:00 AM)
Average temperature yesterday: 69 °F

Past Weeks' High & Low Weather Summary

 TemperatureHumidityPressure
High84 °F (Oct 10, 1:00 PM)100% (Oct 18, 4:00 AM)30.27 "Hg (Oct 18, 4:00 AM)
Low57 °F (Oct 10, 5:00 AM)22% (Oct 11, 2:00 PM)30.01 "Hg (Oct 16, 3:00 PM)
Average70 °F65%30.15 "Hg
* Reported Oct 6 9:00 AM — Oct 21 9:00 AM, Arusha, Weather by CustomWeather, © 2014

Note: Actual official high and low records may vary slightly from our data, if they occured in-between our weather recording intervals... More about our weather records

Advertising

Arusha weather history for previous 24 hours

 ConditionsComfort  
Time TempWeatherWind HumidityBarometerVisibility
9:00 AM
Oct 21
68 °FPartly sunny.7 mph73%30.24 "HgN/A
8:30 AM66 °FPartly sunny.10 mph83%30.24 "HgN/A
8:00 AM64 °FPartly sunny.8 mph88%30.21 "HgN/A
7:00 AM63 °FPartly sunny.6 mph88%30.18 "HgN/A
6:00 AM63 °FPassing clouds.5 mph94%30.18 "HgN/A
5:00 AM63 °FPassing clouds.6 mph94%30.15 "HgN/A
4:00 AM63 °FPassing clouds.5 mph88%30.12 "HgN/A
3:00 AM63 °FPassing clouds.3 mph94%30.12 "HgN/A
2:00 AM64 °FPassing clouds.8 mph88%30.12 "HgN/A
1:00 AM66 °FPassing clouds.9 mph73%30.15 "HgN/A
12:00 AM66 °FPassing clouds.5 mph78%30.18 "HgN/A
11:00 PM
Oct 20
68 °FPassing clouds.8 mph69%30.18 "HgN/A
10:00 PM68 °FPassing clouds.8 mph73%30.18 "HgN/A
9:00 PM68 °FPassing clouds.8 mph69%30.15 "HgN/A
8:00 PM68 °FPassing clouds.12 mph69%30.12 "HgN/A
7:30 PM68 °FPassing clouds.8 mph73%30.12 "HgN/A
7:00 PM70 °FPassing clouds.10 mph64%30.09 "HgN/A
6:00 PM73 °FBroken clouds.12 mph57%30.07 "HgN/A
5:30 PM73 °FBroken clouds.12 mph57%30.07 "HgN/A
5:00 PM75 °FPartly sunny.9 mph57%30.07 "HgN/A
4:00 PM72 °FBroken clouds.5 mph65%30.07 "HgN/A
3:00 PM70 °FLight rain. Broken clouds.8 mph73%30.09 "HgN/A
2:00 PM70 °FPartly sunny.14 mph73%30.09 "HgN/A
1:00 PM75 °FPartly sunny.10 mph61%30.12 "HgN/A
12:00 PM72 °FSprinkles. Partly sunny.8 mph65%30.18 "HgN/A
11:00 AM72 °FPartly sunny.6 mph69%30.21 "HgN/A
10:30 AM72 °FPartly sunny.7 mph69%30.21 "HgN/A
10:00 AM70 °FPartly sunny.5 mph73%30.21 "HgN/A
Weather by CustomWeather, © 2014

See weather overviewHow to use our weather pages